Time,TemperatureF,DewpointF,PressureIn,WindDirection,WindDirectionDegrees,WindSpeedMPH,WindSpeedGustMPH,Humidity,HourlyPrecipIn,Conditions,Clouds,dailyrainin,SoftwareType,DateUTC
2014-09-18 00:00:00,48.8,47.7,29.97,NNW,330,4.6,4.6,96,0.00,CLR,,0.00,WeatherDisplay:10.37,2014-09-18 04:00:00,
2014-09-18 00:05:00,48.6,47.5,29.97,NNW,330,4.6,4.6,96,0.00,CLR,,0.00,WeatherDisplay:10.37,2014-09-18 04:05:00,
2014-09-18 00:10:00,48.5,47.4,29.97,NNW,330,4.6,4.6,96,0.00,CLR,,0.00,WeatherDisplay:10.37,2014-09-18 04:10:00,
2014-09-18 00:15:00,48.4,47.6,29.97,NNW,330,4.6,4.6,97,0.00,CLR,,0.00,WeatherDisplay:10.37,2014-09-18 04:15:00,
2014-09-18 00:20:00,48.3,47.5,29.97,NNW,330,4.6,4.6,97,0.00,CLR,,0.00,WeatherDisplay:10.37,2014-09-18 04:20:00,
2014-09-18 00:25:00,48.2,48.2,29.97,NNW,330,4.6,4.6,100,0.00,CLR,,0.00,WeatherDisplay:10.37,2014-09-18 04:25:00,
2014-09-18 00:30:00,48.1,47.3,29.97,NNW,330,4.6,4.6,97,0.00,CLR,,0.00,WeatherDisplay:10.37,2014-09-18 04:30:00,
2014-09-18 00:35:00,48.0,47.2,29.97,NNW,330,4.6,4.6,97,0.00,CLR,,0.00,WeatherDisplay:10.37,2014-09-18 04:35:00,
2014-09-18 00:40:00,47.9,47.1,29.97,NNW,330,4.6,4.6,97,0.00,CLR,,0.00,WeatherDisplay:10.37,2014-09-18 04:40:00,
2014-09-18 00:45:00,47.9,47.1,29.97,NNW,330,4.6,4.6,97,0.00,CLR,,0.00,WeatherDisplay:10.37,2014-09-18 04:45:00,
2014-09-18 00:50:00,47.8,47.0,29.97,NNW,330,4.6,4.6,97,0.00,CLR,,0.00,WeatherDisplay:10.37,2014-09-18 04:50:00,
2014-09-18 00:55:00,47.8,47.0,29.97,NNW,330,4.6,4.6,97,0.00,CLR,,0.00,WeatherDisplay:10.37,2014-09-18 04:55:00,
2014-09-18 00:58:00,47.8,47.0,29.96,NNW,330,4.6,4.6,97,0.00,CLR,,0.00,WeatherDisplay:10.37,2014-09-18 04:58:00,
2014-09-18 01:03:00,47.8,47.0,29.96,NW,310,4.6,4.6,97,0.00,CLR,,0.00,WeatherDisplay:10.37,2014-09-18 05:03:00,
2014-09-18 01:08:00,47.7,46.9,29.96,NW,310,4.6,4.6,97,0.00,CLR,,0.00,WeatherDisplay:10.37,2014-09-18 05:08:00,
2014-09-18 01:13:00,47.7,46.9,29.96,NW,310,4.6,4.6,97,0.00,CLR,,0.00,WeatherDisplay:10.37,2014-09-18 05:13:00,
2014-09-18 01:18:00,47.6,46.8,29.96,NW,310,4.6,4.6,97,0.00,CLR,,0.00,WeatherDisplay:10.37,2014-09-18 05:18:00,
2014-09-18 01:23:00,47.4,46.6,29.96,NW,310,4.6,4.6,97,0.00,CLR,,0.00,WeatherDisplay:10.37,2014-09-18 05:23:00,
2014-09-18 01:28:00,47.3,46.5,29.96,NW,310,4.6,4.6,97,0.00,CLR,,0.00,WeatherDisplay:10.37,2014-09-18 05:28:00,
2014-09-18 01:33:00,47.2,46.4,29.96,NW,310,4.6,4.6,97,0.00,CLR,,0.00,WeatherDisplay:10.37,2014-09-18 05:33:00,
2014-09-18 01:38:00,47.1,46.3,29.96,NW,310,4.6,4.6,97,0.00,CLR,,0.00,WeatherDisplay:10.37,2014-09-18 05:38:00,
2014-09-18 01:43:00,47.0,46.2,29.96,NW,310,4.6,4.6,97,0.00,CLR,,0.00,WeatherDisplay:10.37,2014-09-18 05:43:00,
2014-09-18 01:48:00,46.9,46.1,29.96,NW,310,4.6,4.6,97,0.00,CLR,,0.00,WeatherDisplay:10.37,2014-09-18 05:48:00,
2014-09-18 01:53:00,46.8,46.0,29.95,NW,310,4.6,4.6,97,0.00,CLR,,0.00,WeatherDisplay:10.37,2014-09-18 05:53:00,
2014-09-18 01:58:00,46.7,45.9,29.95,NW,310,4.6,4.6,97,0.00,CLR,,0.00,WeatherDisplay:10.37,2014-09-18 05:58:00,
2014-09-18 02:03:00,46.6,45.8,29.95,WNW,300,3.5,3.5,97,0.00,CLR,,0.00,WeatherDisplay:10.37,2014-09-18 06:03:00,
2014-09-18 02:08:00,46.5,45.7,29.95,WNW,300,3.5,3.5,97,0.00,CLR,,0.00,WeatherDisplay:10.37,2014-09-18 06:08:00,
2014-09-18 02:13:00,46.5,45.7,29.95,WNW,300,3.5,3.5,97,0.00,CLR,,0.00,WeatherDisplay:10.37,2014-09-18 06:13:00,
2014-09-18 02:18:00,46.5,46.0,29.95,WNW,300,3.5,3.5,98,0.00,CLR,,0.00,WeatherDisplay:10.37,2014-09-18 06:18:00,
2014-09-18 02:23:00,46.5,46.0,29.95,WNW,300,3.5,3.5,98,0.00,CLR,,0.00,WeatherDisplay:10.37,2014-09-18 06:23:00,
2014-09-18 02:28:00,46.5,46.0,29.95,WNW,300,3.5,3.5,98,0.00,CLR,,0.00,WeatherDisplay:10.37,2014-09-18 06:28:00,
2014-09-18 02:33:00,46.4,45.9,29.95,WNW,300,3.5,3.5,98,0.00,CLR,,0.00,WeatherDisplay:10.37,2014-09-18 06:33:00,
2014-09-18 02:38:00,46.5,46.0,29.95,WNW,300,3.5,3.5,98,0.00,CLR,,0.00,WeatherDisplay:10.37,2014-09-18 06:38:00,
2014-09-18 02:43:00,46.4,45.9,29.95,WNW,300,3.5,3.5,98,0.00,CLR,,0.00,WeatherDisplay:10.37,2014-09-18 06:43:00,
2014-09-18 02:48:00,46.4,45.9,29.95,WNW,300,3.5,3.5,98,0.00,CLR,,0.00,WeatherDisplay:10.37,2014-09-18 06:48:00,
2014-09-18 02:53:00,46.3,45.8,29.95,WNW,300,3.5,3.5,98,0.00,CLR,,0.00,WeatherDisplay:10.37,2014-09-18 06:53:00,
2014-09-18 02:58:00,46.3,45.8,29.95,WNW,300,3.5,3.5,98,0.00,CLR,,0.00,WeatherDisplay:10.37,2014-09-18 06:58:00,
2014-09-18 03:03:00,46.3,45.8,29.95,NW,320,5.8,5.8,98,0.00,CLR,,0.00,WeatherDisplay:10.37,2014-09-18 07:03:00,
2014-09-18 03:08:00,46.2,45.7,29.95,NW,320,5.8,5.8,98,0.00,CLR,,0.00,WeatherDisplay:10.37,2014-09-18 07:08:00,
2014-09-18 03:13:00,46.2,45.7,29.95,NW,320,5.8,5.8,98,0.00,CLR,,0.00,WeatherDisplay:10.37,2014-09-18 07:13:00,
2014-09-18 03:18:00,46.1,45.6,29.95,NW,320,5.8,5.8,98,0.00,CLR,,0.00,WeatherDisplay:10.37,2014-09-18 07:18:00,
2014-09-18 03:23:00,46.0,45.5,29.95,NW,320,5.8,5.8,98,0.00,CLR,,0.00,WeatherDisplay:10.37,2014-09-18 07:23:00,
2014-09-18 03:28:00,46.1,45.6,29.95,NW,320,5.8,5.8,98,0.00,CLR,,0.00,WeatherDisplay:10.37,2014-09-18 07:28:00,
2014-09-18 03:33:00,46.0,45.5,29.95,NW,320,5.8,5.8,98,0.00,CLR,,0.00,WeatherDisplay:10.37,2014-09-18 07:33:00,
2014-09-18 03:38:00,46.0,45.5,29.95,NW,320,5.8,5.8,98,0.00,CLR,,0.00,WeatherDisplay:10.37,2014-09-18 07:38:00,
2014-09-18 03:43:00,46.0,45.5,29.95,NW,320,5.8,5.8,98,0.00,CLR,,0.00,WeatherDisplay:10.37,2014-09-18 07:43:00,
2014-09-18 03:48:00,45.9,45.4,29.95,NW,320,5.8,5.8,98,0.00,CLR,,0.00,WeatherDisplay:10.37,2014-09-18 07:48:00,
2014-09-18 03:53:00,45.8,45.3,29.95,NW,320,5.8,5.8,98,0.00,CLR,,0.00,WeatherDisplay:10.37,2014-09-18 07:53:00,
2014-09-18 03:58:00,45.6,45.1,29.95,NW,320,5.8,5.8,98,0.00,CLR,,0.00,WeatherDisplay:10.37,2014-09-18 07:58:00,
2014-09-18 04:03:00,45.6,45.1,29.95,NW,320,5.8,5.8,98,0.00,CLR,,0.00,WeatherDisplay:10.37,2014-09-18 08:03:00,
2014-09-18 04:08:00,45.6,45.1,29.95,NW,320,5.8,5.8,98,0.00,CLR,,0.00,WeatherDisplay:10.37,2014-09-18 08:08:00,
2014-09-18 04:13:00,45.4,44.9,29.95,NW,320,5.8,5.8,98,0.00,CLR,,0.00,WeatherDisplay:10.37,2014-09-18 08:13:00,
2014-09-18 04:18:00,45.4,44.9,29.95,NW,320,5.8,5.8,98,0.00,CLR,,0.00,WeatherDisplay:10.37,2014-09-18 08:18:00,
2014-09-18 04:23:00,45.4,44.9,29.95,NW,320,5.8,5.8,98,0.00,CLR,,0.00,WeatherDisplay:10.37,2014-09-18 08:23:00,
2014-09-18 04:28:00,45.3,44.8,29.95,NW,320,5.8,5.8,98,0.00,CLR,,0.00,WeatherDisplay:10.37,2014-09-18 08:28:00,
2014-09-18 04:33:00,45.2,44.7,29.96,NW,320,5.8,5.8,98,0.00,CLR,,0.00,WeatherDisplay:10.37,2014-09-18 08:33:00,
2014-09-18 04:38:00,45.1,44.6,29.96,NW,320,5.8,5.8,98,0.00,CLR,,0.00,WeatherDisplay:10.37,2014-09-18 08:38:00,
2014-09-18 04:43:00,45.1,44.6,29.96,NW,320,5.8,5.8,98,0.00,CLR,,0.00,WeatherDisplay:10.37,2014-09-18 08:43:00,
2014-09-18 04:48:00,45.1,44.6,29.96,NW,320,5.8,5.8,98,0.00,CLR,,0.00,WeatherDisplay:10.37,2014-09-18 08:48:00,
2014-09-18 04:53:00,45.0,44.5,29.97,NW,320,5.8,5.8,98,0.00,CLR,,0.00,WeatherDisplay:10.37,2014-09-18 08:53:00,
2014-09-18 04:58:00,45.0,44.5,29.96,NW,320,5.8,5.8,98,0.00,CLR,,0.00,WeatherDisplay:10.37,2014-09-18 08:58:00,